time,Ferment Cool PID/i,Ferment Cool PID/p,Ferment Cool PID/d,Ferment Cool PID/outputSetting,Ferment Beer Sensor/value[degC],Ferment Heat PID/p,Ferment Heat PID/i
1569283200000000000,13.082959600377968,3.009270260657793,0,16.092771981321732,20.443722511574073,-1.881375253936391,-0.002552480815369402
1569304800000000000,13.65854375675624,3.0747128362932394,0,16.7333061294837,19.943754966580485,-1.9217354592669944,0.902679743373052
1569326400000000000,24.197637790363725,5.013581258783896,0,29.21121904914762,19.46846443727954,-3.1334882867399347,0.03171407252182195
1569348000000000000,17.49004475698613,-4.491033523557124,0,13.378908522940607,18.9682444296637,2.8071084449894066,3.427104520297727
1569369600000000000,9.606869453013049,12.55243481832837,0,22.159111336198436,19.156834284060846,-7.84510221935454,1.4473822530110676
1569391200000000000,20.258993373917942,1.0770114474826389,0,21.336140667950662,19.013755304783952,-0.6731269742235725,0.514246381594811
1569412800000000000,23.324892854407675,-0.3826938821811865,0,22.94204853079268,18.994900655864196,0.23920910767834647,0.6375207236961081
1569434400000000000,19.760883081829736,3.095268602051642,0,22.856144389803447,19.038125482253086,-3.078085493999394,3.5207088668258097
1569456000000000000,22.709477605509303,-1.1563954705474886,0,21.55308327157891,18.985368792087545,1.0840496615528659,1.9511696468057858
1569477600000000000,22.726181398421996,-1.620208449590774,0,21.10641604522759,18.979469866071426,1.5191658262222532,1.9721457420497135
1569499200000000000,18.149407896574285,2.5390166233265195,0,20.68821128114936,19.032232073963847,-2.380128872400296,7.297636143579035
1569520800000000000,22.334326923046813,-2.6712309866240527,0,19.663101821417452,18.9665128279321,2.5042790499600494,2.4080170542081043
1569542400000000000,19.356836728867723,4.401927861514451,0,23.758771364530997,19.055167166456233,-4.126547405615399,5.389591139633915
1569564000000000000,18.573485807926776,-4.47199286234117,0,14.10134895536329,18.94407718679854,4.192493308444846,4.555446259616487
1569585600000000000,19.460492938446738,4.638737861862048,0,24.09940615205213,19.057614293981484,-4.348850936485977,3.4197376616849375
1569607200000000000,12.79033721862666,-6.044254140898224,0,9.516815299920514,18.97317232969577,5.842000700446185,3.0654885160890513
1569628800000000000,0.018935312818827228,-3.405592776040571,0,0.17011286537521483,19.241713226010102,3.4058820765160287,10.712076310840807
1569650400000000000,0.9629083311158303,1.1047979284215856,0,2.0815623457974226,19.543937458664022,-1.1048634847005208,11.290749127423323
1569672000000000000,3.183866591411503,1.966267553797054,0,5.149616043386846,19.810112364969136,-1.9663135185443534,8.329471981580085
1569693600000000000,6.1420419061247005,3.1128974658892052,0,9.255061065566181,20.018706183862435,-3.1125845665233687,4.385238793051853
1569715200000000000,8.237446680819739,-2.886340671115452,0,5.356043727300442,19.970549768518516,2.88616551186233,2.3427129465665537
1569736800000000000,4.935099330949195,-0.134715892650463,0,4.800383950692636,19.998509355709874,0.134715892650463,6.789554369891132
1569758400000000000,5.810455253372326,1.6275220329378859,0,7.437332159779058,20.0163531332672,-1.626689581223476,5.622412895727411
1569780000000000000,7.839785217877208,0.4363419736293679,0,8.27612680721115,20.004277171516755,-0.4364030087856179,2.916632462220638
1569801600000000000,6.1851389442775355,-2.4548703931129876,0,3.7327282095635876,19.975637375741545,2.4548703931129876,5.12282813625877
1569823200000000000,3.8483666275119828,-0.48446686588572985,0,3.364139522413652,19.995038580246916,0.4842718924699312,8.238525173058205
1569844800000000000,3.8088673352438307,0.8047987250003444,0,4.61366645584241,20.008705150462962,-0.8050426772452326,8.274708755197137
1569866400000000000,3.9724996638760577,-0.3356247302983957,0,3.6990963094594185,19.996291079194723,0.3356247302983957,6.59027739866892
1569888000000000000,1.5382476381439798,-1.2495733239395754,0,0.8331278388882861,19.98745528824956,1.2495733239395754,9.835951528128703
1569909600000000000,1.908298144148618,1.0788236993884779,0,2.986616291598439,20.01083980930335,-1.07887192469712,9.342557597390464
1569931200000000000,5.170827018269289,2.316125800943306,0,7.486952819212594,20.023372508567817,-2.3161672445679202,4.992520609860698
1569952800000000000,3.468119096167294,-5.701876416618442,0,1.7053216100622108,19.942914255401238,5.702082881221064,7.093148523024571
1569974400000000000,1.2961745690068547,-0.5497653160566162,0,3.83894836305903,19.994440949675322,0.5491238817756555,19.040474630688866
1569996000000000000,20.251525335295074,4.879792201666185,0,25.130748086488648,20.04870418595679,-4.8790740966796875,7.106615865394552
1570017600000000000,4.371919643898262,-16.299002060054228,0,0.605848838092999,19.83756646567917,16.29919340042501,13.007837927305571
1570039200000000000,-0.001044128599009377,-4.788373674665178,0,0.00022430689036320544,19.952228147045854,4.788902009930656,9.575725288262673
1570060800000000000,5.984088578853389,2.4037679648082073,0,10.663592002639904,20.024425010271365,-2.4037679648082073,25.238939637781545
1570082400000000000,26.614488333781143,-0.8177644167837853,0,28.025894059277082,19.992135485559967,0.8177644167837853,5.410060720830578
1570104000000000000,1.5536333461539453,6.945738104495633,0,18.167325276100655,20.069719535383598,-6.945297295033828,57.47862179818397
1570125600000000000,54.30020448110684,6.709706932607325,0,65.21598998137806,20.066790135982846,-6.7096956298006125,2.4979002564347517
1570147200000000000,1.0793263091233671,-19.1228818001991,0,9.445781412006896,19.808890060074955,19.122777951381064,57.239240724270935
1570168800000000000,48.9114266214253,20.653928430412606,0,69.53090384643123,20.205797026565257,-20.653932198014843,2.89920498479611
1570190400000000000,6.889437068824836,-28.34915750493448,0,5.049468276681512,19.71695415839947,28.34915750493448,56.43370195448427
1570212000000000000,0.12520028950255596,36.74620096519511,0,36.871449480006305,20.367641093474425,-36.746359958009535,5.540222013497058
1570233600000000000,0.010009765625,-15.505121059518643,0,1.1966816961702216,19.84418037643298,15.505121059518643,-0.060302734375
1570255200000000000,0.010009765625,-30.971881689695817,0,0,19.689435413159373,30.971559182944276,-0.060302734375
1570276800000000000,0.0038926866319444445,-17.716287861173114,0,0,19.823098131613754,17.716287861173114,-0.023451063368055556
1570298400000000000,-0.00006544325086805555,-11.187159882399142,0,0,19.845376157407404,11.729731602475338,0.4062981580300306
1570320000000000000,-0.00040704232675057867,-5.881209514422811,0,0,19.70635788690476,8.821797196322647,11.324396019452884
1570341600000000000,-0.0002455892680603781,-4.1012135583811204,0,0.000005726755401234568,19.79510850694444,6.15203611842711,28.801845538818398
1570363200000000000,1.2952425657672648,2.722839796816441,0,4.019263722253224,20.136352857694003,-4.084387190884383,30.134569701610207
1570384800000000000,2.22209619967051,4.290360972796073,0,6.512328847934367,20.214685965558363,-6.435541459194108,16.920464480621643
1570406400000000000,3.6116025096115933,0.002428637503507488,0,3.7054484776332814,20.000487952441077,-0.00358689433396453,9.014905151298686
1570428000000000000,0.32699425026222506,-5.030760333544554,0,0,19.748610146604936,7.546140500316832,18.15199534032252
1570449600000000000,0.0293514407673038,-1.5885394755857811,0,0.17463857562988827,19.92116972678171,2.3827757489973678,30.108972157032913
1570471200000000000,1.6944551247894448,3.5266481053051284,0,5.221003925518594,20.176581307870368,-5.28996481113333,26.757582967983563
1570492800000000000,1.0147050782864686,5.510690775876323,0,6.525392553743231,20.27597056878307,-8.265905446854848,16.654058329533438
1570514400000000000,3.7987347132230354,1.956690976312762,0,5.755437288099285,20.097520323522925,-2.934929370375537,9.179116543562955
1570536000000000000,2.616488027152141,-2.108726202747809,0,1.054059109157986,19.894693838183425,3.163130672394283,9.782217380584234
1570557600000000000,0.004046158025294173,-2.0212709780092593,0,0,19.899080825617283,3.031862499095775,13.99566734784915
1570579200000000000,0.06539091160688451,-0.015278186831734986,0,0.3301762885307298,19.99944003527337,0.02291728024760246,15.969255789028482
1570600800000000000,1.742057390431668,1.1923137146749614,0,2.934394351212436,20.059311342592594,-1.788485265661169,14.528499599772998
1570622400000000000,3.412892784227521,0.3581205968962317,0,3.7709369755204105,20.017826247344473,-0.53706653149097,13.02475629186638
1570644000000000000,2.544703579319007,-1.3101437684720154,0,1.3133360659214135,19.9344957699515,1.9652091535941631,13.80612601251619
1570665600000000000,0.1686033209084662,-1.3086363273303785,0,0,19.93436960753367,1.9629544909955676,16.4169176002785
1570687200000000000,0.00009999216338734567,-0.4768444326112377,0,0.0016677019010087855,19.977085738335735,0.7152651795519839,18.111750719181448
1570708800000000000,0.5656689210677349,0.8473389557506176,0,1.413102292930428,20.042072855289003,-1.2711038293145838,17.89474773035727
1570730400000000000,3.321948274163189,1.8783099418078668,0,5.200366410204515,20.093960732072713,-2.817455418354161,15.270019835691834
1570752000000000000,4.847975541641262,1.4989938857980851,0,6.346891326121418,20.075385113536154,-2.2484327322706226,12.015827104214656
1570773600000000000,6.185328548101732,0.12631785882213128,0,6.311635284423827,20.006813271604937,-0.18946454083478018,10.378728861867648
1570795200000000000,4.921041281617717,-1.06907470703125,0,3.851974170072579,19.94647579089506,1.603473623770255,11.516579291072892
1570816800000000000,3.416914759702133,-0.2932400555264325,0,3.123637018734319,19.985479415935146,0.4399335104321677,12.87029784028416
1570838400000000000,3.6543226556256543,0.46840086706521444,0,4.122813315954999,20.022982115299822,-0.7027576184146618,12.656634529826924
1570860000000000000,4.453231149868876,0.22928195187004596,0,4.682538517983617,20.010964374649273,-0.3438440907282459,11.937611811620906
1570881600000000000,4.72127986955054,-0.011724099995177465,0,4.709563003351659,19.999392843364195,0.017475269458912025,11.696360513192637
1570903200000000000,4.260098151689694,-0.3818343335779046,0,3.8782657226347204,19.980970293209875,0.5726286953719204,12.11142458503629
1570924800000000000,3.4003559257259006,-0.6103080814343835,0,2.789966151494523,19.969607533670032,0.9154621221515753,12.885198989728716
1570946400000000000,1.8577613655642018,-0.56773953446215,0,1.2900207008213804,19.970766024581128,0.8516078220530736,14.273526968442994
1570968000000000000,2.4781226451752065,1.2593233349194448,0,3.7374796357429307,20.063399370691037,-1.8890686431488433,13.715207551384616
1570989600000000000,4.174951410408259,2.412575050636574,0,6.5875261466213,20.12096450617284,-3.618862575954861,10.210767282422045
1571011200000000000,4.943331323831304,1.1164519676513083,0,6.059644246507344,20.05517443156766,-1.6745189694271112,6.5433018151143045
1571032800000000000,3.881103393642761,-1.919313681735353,0,2.0369797546817296,19.904051489598363,2.878945362114918,7.415857442489166
1571054400000000000,0.2681333942177855,-2.371046843352141,0,0,19.881362847222224,3.55659513120298,11.666371164204163
1571076000000000000,0.000027729552469135796,-0.6191765410139026,0,0.0008262577763310184,19.96892678020282,0.9287648115208541,14.544861066168998
1571097600000000000,0.9049731563233556,1.1379917273828,0,2.0429434159086055,20.05701981371252,-1.706923165075936,13.992720927987245
1571119200000000000,4.009979453332266,1.9241701180838955,0,5.93413000249014,20.096018769039606,-2.8862827559742232,10.878340667802895
1571140800000000000,6.114736569251543,1.132296903633777,0,7.246864203935789,20.056471836419753,-1.698349451135706,8.186876961036965
1571162400000000000,6.837051750820417,0.057060888797135556,0,6.894105059201851,20.002910027857947,-0.0855655627963977,7.024560403657186
1571184000000000000,5.203956667368126,-1.2811153801469557,0,3.922840066518045,19.936053854517393,1.9216730702204334,8.285300611502395
1571205600000000000,1.6043874794484638,43.86905191460348,0,13.03574652966158,19.893532416175645,-65.8035624795375,9.997819010808106
1571227200000000000,0.028992102401119324,314.9634337219268,0,46.22222222222223,15.881315861992945,-472.4451751664947,-0.026149118560159824
1571248800000000000,0.024068669448664162,260.9902482089504,0,100,15.049492582070705,-391.48541871144715,-0.021638556928880823
1571270400000000000,0.02336395075291763,253.70427698206018,0,100,14.684856288580248,-380.5564927842882,-0.021023981541763114
1571292000000000000,0.02306226942274306,250.561625415728,0,100,14.52779190090388,-375.84245892075637,-0.02077311117182333
1571313600000000000,0.020275863835841047,219.9966726420838,0,99.93827160493827,14.735426036155204,-329.99480794270835,-0.01819563877435378
1571335200000000000,0.5777868498948516,189.43974101286926,0,99.00031140174394,14.262203896604937,-284.1594356476315,-0.015667185304026124
1571356800000000000,42.10753184480165,53.96265506716862,0,91.5385562979787,13.99850229727834,-80.94434316028706,-0.00437192348365851
1571378400000000000,55.730964796082496,28.283249930852264,0,82.02224630581217,13.888117628417108,-42.42497865604403,-0.0022374828950858412
1571400000000000000,67.01282563843634,-2.6588420726634836,0,64.3539779068343,13.675880387455907,3.9882246794524012,0.4156536480400718
1571421600000000000,54.49649053759847,-7.835240568938079,0,46.661268580615456,13.245567217312006,11.75286085340712,0.0781696166307169
1571443200000000000,41.19429983821916,-4.931735837690836,0,36.26257571777129,12.864642994929453,7.397660496625953,0.7402482615745046
1571464800000000000,34.69637680134446,-1.6792379012604028,0,33.01712891593812,12.795617283950618,2.518871262969163,3.895035056193249
1571486400000000000,33.73618409524232,0.2104087238761311,0,33.94659281911845,13.345263228765832,-0.31567231252137257,4.693446760301465
1571508000000000000,32.99884426403794,-1.027697339470004,0,31.971141591526976,13.201129875140294,1.5412809583875868,5.19759884544227
1571529600000000000,31.132761276218208,-1.8589113965446566,0,29.27378950573149,12.849907889660495,2.7885823002568,4.693705268065975
1571551200000000000,21.284485689707246,2.6995188282643525,0,24.024729167796945,12.63746831534592,-4.049482864299148,4.28557129928885
1571572800000000000,11.93839032139976,15.371033930751745,0,27.309406618403,13.198775559413582,-23.056550896127618,-0.001155907901716821
1571594400000000000,22.614965275624865,6.642128203323067,0,29.257093478947926,13.10952739197531,-9.9631923049846,-0.00042941623263888896
1571616000000000000,26.823906103087978,2.418835524570795,0,29.242734401642334,12.918600019290125,-3.6282532868561925,-0.00008385929060570985
1571637600000000000,28.25208117449725,0.732080078125,0,28.984161252622254,12.970818339646463,-1.0981201171874997,0.012049338258342977
1571659200000000000,31.477153339150515,6.739695607880015,0,38.069714986542124,13.390854552469138,-10.108669026692708,0.006717892870490933
1571680800000000000,32.66124275274798,-0.40718065157558964,0,32.25406004406157,13.309379478064374,0.6108037555028522,0.37365586914923665
1571702400000000000,30.846311394962267,-0.04321194872444057,0,30.8030955354667,13.141619888117283,0.06496101661964697,0.9198157265745563
1571724000000000000,31.25948914227433,0.26505115650318284,0,31.524543064197555,13.276045656214928,-0.3975767347547743,0.7958635118761869
1571745600000000000,32.70700482164034,-0.07284986022880716,0,32.63407123758335,13.604143518518518,0.10958403513487737,0.3616119874553916
1571767200000000000,14.768921195873522,7.674039630279289,0,22.448159506889212,13.028547973360979,-11.510849552298273,0.014396173505953146
1571788800000000000,21.440399316344596,3.1640601709367977,0,24.60440895414513,12.109715163790684,-4.746154512861362,0.027488528507459576
1571810400000000000,24.873789083099485,0.2696404815962515,0,25.143402618119513,11.831101597572951,-0.40442681397423824,0.16553432066432555
1571832000000000000,29.84803247864934,0.8613922804159212,0,30.70916656802399,12.823002858445568,-1.2920003409337515,0.015615592982231164
1571853600000000000,30.65730119681653,-0.22240943437741123,0,30.434828466721523,13.132626832561726,0.3337084169741029,0.3906814349139178
1571875200000000000,29.52414680951907,-0.16834129050925925,0,29.355830797737028,13.077133969907408,0.2524857132523148,0.7306274960364824
1571896800000000000,29.71705592402705,0.29833132896894293,0,30.015433630295746,13.225958236882716,-0.44724041974103,0.6727521580825617
1571918400000000000,33.141943707878205,0.5763963648881861,0,33.718298023634276,13.956804591049384,-0.8645021711077009,0.067850149110932
1571940000000000000,32.96908973572746,-0.5101078739872684,0,32.45898295434484,14.048430541776897,0.765243191189236,0.5289076925757529
1571961600000000000,30.423567788480508,-0.33191732455851924,0,30.091591212554146,13.650976957070709,0.49790492202296405,1.292564024406116
1571983200000000000,35.362543762412535,10.553205589011865,0,45.08453351809655,13.545257040895061,-15.829486479582611,0.7644015427577643
1572004800000000000,34.26377698598926,-1.3345099770413082,0,32.92952014553064,13.77801346175044,2.0016434280960653,1.9802758517256913
1572026400000000000,32.554456110824766,0.0868241675106096,0,32.6412454525041,14.03507288910935,-0.13021098949291085,2.4843143636713583
1572048000000000000,33.00721635848757,-0.027223439695973878,0,32.97991455454885,14.19581886574074,0.040788365924169165,2.348484372739439
1572069600000000000,33.17500755404249,0.18375811972105105,0,33.35877797875245,14.361908275462964,-0.2756511950619006,2.298148225922223
1572091200000000000,34.82484908737126,0.14533114473808648,0,34.970191826905236,14.815793788580246,-0.21802158328189825,1.8031916160760864
1572112800000000000,35.01955903623776,-0.18175031360150987,0,34.8379606926401,14.841208043981482,0.2726175584375657,1.7447803823554555
1572134400000000000,29.453562045088944,-1.2994791289906442,0,28.15399730110505,13.38331287202381,1.9493843926323784,3.414581729680353
1572156000000000000,26.08745796459272,0.16339120478016145,0,26.25087291845359,12.625810185185186,-0.2450542550869089,4.424411935419422
1572177600000000000,27.692918648425447,0.08133552457079472,0,27.77423307442371,12.627013888888888,-0.12199808756510411,3.942773853820048
1572199200000000000,26.67737457194656,-0.2573885664604252,0,26.41992769995771,12.282735790444123,0.38604594602672,4.247437170877926
1572220800000000000,25.511015986151587,-0.16232892394696594,0,25.34873662877966,11.96070457175926,0.24365122961619542,4.597345673899171
1572242400000000000,25.24657621106296,0.31696830628410216,0,25.563775079533595,11.805748463053149,-0.47568970533905836,4.676673365414515
1572264000000000000,27.84811902583056,0.085589901017554,0,27.9337092282563,12.039331891584496,-0.12839434588396995,3.8962167468735363
1572285600000000000,26.14934522544686,-0.5134625367443971,0,25.635810463767566,11.671945133377426,0.7701938051165956,4.405844504543082
1572307200000000000,21.12709781088316,-1.3705085014329805,0,19.756705532444006,10.83294491291887,2.0555810030175268,5.328753152406615
1572328800000000000,15.314117155284555,0.4278220167675328,0,15.74210372584742,10.175326861121132,-0.641733025151299,5.58641380722293
1572350400000000000,23.3578543755533,0.9593839076881476,0,24.317352560268716,10.525993027998236,-1.4390760875883555,3.17329299334706
1572372000000000000,21.238466944839015,-1.5003974717607937,0,19.73809744101716,10.110615091891134,2.2507496586552374,3.6984149654572533
1572393600000000000,12.615779933223019,-0.7199051091700425,0,11.896004250608845,9.233965084876543,1.0796604297779224,5.800913379810474
1572415200000000000,11.249223435869657,0.6577808007648095,0,11.906996857614226,8.904961025182379,-0.9869076558636495,6.210882810170936
1572436800000000000,19.2721997272393,0.7400739504967208,0,20.012095585062045,9.381914544753087,-1.110259218569155,3.8039910128301244
1572458400000000000,15.942249176186861,-1.0171574271946586,0,14.925092611601857,9.1891232200477,1.525750382328446,4.802972588159152
1572480000000000000,10.547936882764,0.5657083256611249,0,11.113507103197504,8.364993029250842,-0.8484289509680139,5.916996025145387
1572501600000000000,9.648537170693949,3.0791776651294067,0,12.727717603983473,8.008429752635482,-4.618761442256925,1.7330230198882033
1572523200000000000,16.46026831383007,0.08313327659030778,0,16.54335206905657,8.355729561237375,-0.12473314513719784,0.15382739085579256
1572544800000000000,12.080461481757055,-0.9951700361948164,0,11.085248080460483,8.16238315696649,1.4928042215014259,1.5840953661398913
1572566400000000000,10.05414384253231,1.9147989532093943,0,11.96882327232832,7.5644174382716045,-2.871901674623843,0.39098320101514267
1572588000000000000,12.28619721503638,1.9737574002558134,0,14.25991297095713,7.453025129769922,-2.96063610038372,0.11587655715000479
1572609600000000000,17.733919327347365,1.001251823519483,0,18.735122797459734,8.372617187500001,-1.5020024052372687,0.00019683649510513117
1572631200000000000,24.026363590467394,1.2068956642707456,0,25.233191452968267,9.263146789071268,-1.8102613250013153,0.0001981626910927855
1572652800000000000,28.84537846061116,0.42683843233769997,0,29.272189575948833,10.031848476080247,-0.6402382076790036,0.00852796012972608
1572674400000000000,30.107649863400443,-0.07422441852882121,0,30.0335053802045,10.610612592943324,0.11133662779323183,0.1081682286118016
1572696000000000000,28.8658534886842,-0.21686384437442385,0,28.64911339874047,10.841249981210916,0.3251990145361727,0.4954268265443294
1572717600000000000,27.65154574992547,-0.21965403615692522,0,27.43187255859375,10.882500482253086,0.3294810542353877,0.8597180451501232
1572739200000000000,26.37441781314803,-0.1853577036916474,0,26.188981200795116,10.822267071759262,0.2780572396737558,1.2428609231077594
1572760800000000000,25.761091589622627,0.20487565063065558,0,25.965971339404515,10.813249421296296,-0.30726532598938605,1.4268506556381417
1572782400000000000,27.962497783304315,0.14501700695650077,0,28.107623406465724,11.20011828979277,-0.21761146827980318,0.7664299385299548
1572804000000000000,27.17582705411044,-0.26887732783016804,0,26.906981246040587,11.148651269640853,0.40322980784406565,1.0024370509018132
1572825600000000000,25.192331029033554,-0.2737258243239688,0,24.918585016012997,10.92369620686027,0.410577207623106,1.597480610891357
1572847200000000000,25.38931816033796,0.33399624294704866,0,25.72336049962927,10.896541763117284,-0.5010779486762152,1.5383843052240065
1572868800000000000,27.52517652072757,0.1609002966404496,0,27.685959125009315,11.254336902006173,-0.24137711958451713,0.8976253149030452
1572890400000000000,26.491938496476973,-0.35045207459249617,0,26.141567621247898,11.102440200617286,0.5257110030562789,1.2075989498831399
1572912000000000000,24.562043180112486,-0.3257668954354745,0,24.236326921251088,10.851866319444445,0.4885707713939525,1.7865694116663047
1572933600000000000,23.222736720870625,0.0985068615571952,0,23.32124076614515,10.580410535163141,-0.14776029233579285,2.1883599342198177
1572955200000000000,26.244033039699136,0.4186914338464632,0,26.66290544655148,10.908354671466652,-0.6279919395428429,1.281972356285253
1572976800000000000,26.150837102819366,-0.18169929733141812,0,25.969099818638387,10.932422357253087,0.27227168814845815,1.309929051205805
1572998400000000000,24.73693139048557,-0.3018598308505129,0,24.43507155963506,10.658857486071028,0.45278974627576923,1.734101634891786
1573020000000000000,23.329975848642125,0.051026257173514646,0,23.38092892613609,10.408761047979796,-0.07648281007503417,2.156184058226854
1573041600000000000,24.805120322707754,-0.025674826001364087,0,24.779382735988317,10.431982060185186,0.038512239002046124,1.713648088952756
1573063200000000000,19.67292354956219,-1.306742268058186,0,18.366363791177836,9.999609199635243,1.9597343213630445,3.253304750590212
1573084800000000000,16.02474570703254,0.010024136336392195,0,16.034831112116525,9.66467792383157,-0.014883842670097605,4.347754897129389